GFSSW_925_rhum_150.txt.gz
RH
58 57 58 60 59 63 69 73 75 76 75 70 66 60 54 50 38 30 40 28 20 22 27 25 16 14 14 16 14 16 26 31 24 18 16 12 23 27 30 35 41 45 59 63 66
65 64 63 61 63 68 73 76 78 78 76 73 69 62 55 50 46 49 31 24 22 29 29 23 21 20 19 15 14 21 29 23 19 14 14 13 18 26 34 42 47 64 59 57 54
65 64 65 67 68 72 76 78 81 82 79 79 75 68 58 50 58 36 22 21 28 32 30 23 20 20 17 15 14 18 23 20 14 13 14 16 24 23 36 40 44 61 54 40 40
61 61 64 68 72 74 77 84 85 82 81 79 77 73 61 57 39 24 27 30 32 27 26 21 19 17 18 18 15 14 15 13 14 12 13 15 26 30 31 34 36 35 36 38 41
76 69 70 76 80 83 90 89 86 84 82 79 80 77 68 71 58 28 32 31 29 25 24 23 23 16 17 17 15 12 13 12 12 12 12 14 27 32 34 33 31 31 34 40 42
98 93 90 92 95 94 93 91 88 85 83 81 83 84 82 90 41 38 33 31 29 28 27 24 20 13 15 15 16 13 13 12 11 13 12 27 30 27 28 30 32 35 40 41 43
100 100 99 99 100 99 98 96 91 83 85 86 88 95 91 82 37 35 41 42 39 32 28 20 16 14 16 19 16 14 14 13 12 12 13 20 26 28 28 29 34 37 40 42 42
100 100 100 100 100 99 100 100 100 96 88 85 90 99 91 60 49 54 49 49 43 38 32 23 19 16 17 17 18 16 16 18 13 12 12 14 21 28 30 32 40 40 41 43 43
93 99 92 93 92 96 98 99 100 100 94 90 92 97 89 60 59 43 50 52 40 36 32 26 14 18 21 24 28 23 22 21 18 13 14 15 22 30 30 31 37 40 44 44 47
86 97 96 91 86 87 91 90 92 98 93 95 96 95 79 56 44 40 38 39 39 39 40 26 24 28 35 32 37 29 25 21 17 13 16 21 27 29 29 31 35 42 44 46 46
85 84 95 88 86 86 81 90 94 100 100 83 76 76 55 49 41 33 36 30 26 39 54 29 35 39 32 33 27 24 26 23 15 14 16 20 30 30 28 32 40 42 45 47 47
83 85 94 92 94 82 88 93 94 94 97 67 73 75 70 66 68 50 41 32 34 46 48 45 43 30 29 31 32 31 30 23 16 14 15 19 26 30 28 28 32 39 45 47 48
85 80 89 100 94 87 92 91 92 98 99 72 69 61 60 59 76 63 47 39 43 43 55 58 48 34 32 33 34 30 24 22 20 16 15 20 23 22 27 26 29 34 40 42 47
86 84 96 98 99 95 97 80 80 88 100 75 76 62 54 51 70 51 43 39 41 50 51 54 40 38 36 37 30 31 21 20 20 22 26 20 34 24 21 29 30 34 43 43 45
79 96 99 96 87 95 84 72 88 99 96 46 56 44 48 61 51 57 48 52 44 46 46 50 38 39 39 34 26 30 26 27 21 24 28 26 29 30 19 28 30 37 42 42 43
74 94 96 100 95 75 86 86 98 100 96 51 41 60 68 63 55 42 53 46 44 42 40 44 38 37 35 29 26 27 23 28 30 31 42 31 28 24 22 24 33 39 41 43 48
73 79 96 94 89 76 83 100 99 97 44 43 48 45 64 73 67 58 57 65 73 78 77 61 58 48 45 44 23 25 32 50 47 48 49 29 29 26 24 22 36 42 44 45 47
80 76 88 87 79 92 99 100 99 66 52 30 35 38 54 55 69 60 65 68 62 62 68 78 78 59 46 50 37 32 36 60 79 66 47 29 36 28 31 33 31 38 43 47 51
84 86 90 87 80 84 97 99 95 58 43 39 39 48 39 41 39 63 68 60 51 56 77 92 89 39 45 42 28 35 42 32 53 45 53 44 30 26 36 46 44 49 48 51 51
90 95 86 76 86 89 100 97 93 60 34 37 51 52 52 35 42 55 61 53 52 49 39 55 76 55 31 30 32 35 30 48 73 81 60 45 39 56 40 55 53 53 53 51 54
93 99 79 82 86 99 98 87 80 60 51 44 47 57 50 38 34 63 56 42 49 45 46 50 77 73 47 36 42 35 47 46 48 58 61 65 69 62 56 49 53 50 49 53 56
95 100 84 84 99 97 91 82 61 63 57 51 41 44 47 41 44 50 67 50 37 33 38 43 68 84 68 49 26 32 36 49 86 76 52 59 69 44 53 52 44 40 38 47 55
98 100 77 99 97 98 74 73 70 64 66 52 49 50 50 56 48 44 51 43 45 38 44 48 93 92 52 38 29 30 34 43 59 55 51 71 72 52 50 45 36 34 46 55 70
99 99 99 98 97 93 82 74 76 59 69 66 58 53 60 62 58 57 52 50 49 44 44 55 82 97 86 56 44 35 33 40 52 68 57 67 62 49 54 43 38 34 54 67 70
100 97 94 99 97 100 71 58 62 66 61 61 77 67 67 73 65 59 56 54 44 46 42 53 62 84 79 74 53 40 35 42 51 51 56 58 52 49 52 46 35 34 54 74 73
96 98 100 100 92 99 96 90 63 56 59 69 85 72 58 70 66 70 70 61 49 44 46 55 80 73 74 56 49 53 51 50 56 55 51 60 60 44 40 37 40 42 63 74 77
76 88 100 89 98 99 94 87 66 54 53 50 58 66 76 61 59 63 63 68 69 62 75 73 84 83 90 60 61 70 68 53 53 51 51 62 49 43 40 37 40 49 62 69 74

GFSSW_925_rhum_156.txt.gz
RH
65 64 63 62 60 62 60 63 68 74 78 78 74 68 60 54 41 33 42 33 22 24 31 30 28 22 16 16 16 23 28 36 27 26 20 22 32 36 45 62 78 74 77 78 83
56 61 64 62 61 61 63 64 70 74 79 81 76 72 65 55 46 54 28 25 28 28 31 28 32 24 22 18 17 22 31 28 24 20 17 22 31 41 54 75 87 81 74 73 72
74 64 57 56 58 57 60 63 68 75 84 84 81 76 67 55 56 33 23 34 34 31 30 27 25 21 20 18 17 23 25 23 20 18 15 24 32 36 58 60 81 85 76 68 63
86 85 77 65 58 58 60 65 71 81 90 88 86 82 73 62 49 26 32 35 35 32 28 25 29 27 19 20 18 19 18 20 18 17 20 27 34 42 36 49 66 68 66 60 62
97 94 93 89 78 68 68 75 82 90 94 92 91 88 79 81 66 32 39 40 33 34 29 30 31 23 19 17 17 18 15 15 15 14 19 30 36 40 56 72 65 60 54 58 60
94 97 99 96 95 90 86 90 94 97 100 100 100 96 89 92 51 47 44 40 40 43 40 40 31 19 19 18 18 17 19 19 14 15 22 30 37 37 45 53 53 51 54 56 59
100 100 100 95 88 90 90 90 89 93 96 97 96 98 96 82 52 47 51 53 54 56 50 41 31 20 18 22 18 18 20 18 15 14 17 33 36 36 46 48 50 52 53 57 60
99 100 100 100 100 99 99 99 95 86 82 86 93 99 96 66 62 66 62 59 54 57 54 48 43 28 19 20 21 20 19 24 18 15 16 23 26 41 46 49 54 55 54 57 60
90 90 97 99 94 92 83 76 77 86 99 99 100 99 90 68 68 53 55 70 56 54 59 45 31 24 22 27 32 28 31 25 22 16 19 23 23 41 46 49 53 54 58 58 61
88 85 88 90 94 90 81 78 83 95 97 100 99 98 90 68 58 56 50 57 57 50 48 44 33 33 34 34 50 33 31 26 22 15 17 21 24 42 45 46 50 58 61 58 60
86 90 92 93 91 91 82 78 87 100 94 93 88 88 71 67 60 53 53 51 48 49 67 40 62 63 51 37 32 27 26 27 24 19 18 21 22 32 44 46 56 60 58 57 59
82 83 82 96 100 98 92 94 86 87 94 71 68 63 65 75 84 61 56 48 55 70 61 52 67 56 50 39 36 39 40 39 34 28 23 24 24 29 43 43 46 52 55 56 59
80 82 81 86 98 99 84 87 91 78 94 74 72 66 61 58 78 72 62 61 51 58 66 72 61 47 51 50 50 46 45 42 39 28 21 21 25 38 41 39 40 45 49 51 53
88 82 87 88 80 85 88 75 89 90 96 72 81 69 61 61 71 52 50 59 66 64 49 56 46 50 53 55 42 54 38 36 38 34 42 22 32 24 39 42 41 43 52 52 52
84 76 79 89 95 96 88 87 90 90 96 53 69 55 58 65 60 62 50 59 77 62 48 58 63 58 61 54 46 54 37 39 39 34 30 28 34 30 29 42 40 41 47 50 49
86 83 83 96 99 91 84 84 91 98 95 60 62 80 82 72 68 60 70 60 62 78 57 52 42 55 57 51 50 38 38 31 34 38 49 37 33 30 28 26 27 35 40 46 50
84 89 87 90 94 91 89 94 100 97 48 51 57 77 80 83 80 72 89 84 88 96 94 64 53 44 40 55 46 43 38 60 55 55 55 34 34 28 23 21 24 32 38 44 50
78 89 88 88 92 94 90 98 98 65 61 38 40 64 83 80 83 77 91 93 80 79 77 84 87 52 48 54 61 51 39 67 73 68 58 37 49 40 32 44 44 35 37 46 53
63 72 93 86 84 98 96 98 87 74 54 56 43 48 61 64 69 77 87 90 80 76 87 82 77 52 49 47 46 60 57 45 66 90 89 56 40 31 47 48 53 51 52 57 59
70 85 93 79 78 98 99 83 94 75 68 63 62 50 80 50 71 75 76 66 76 73 68 82 91 67 54 43 46 52 45 71 98 97 95 82 68 54 43 50 60 63 65 63 61
84 97 88 72 78 99 98 96 74 61 56 78 77 71 60 53 38 58 55 52 50 62 72 74 92 81 76 83 74 79 78 94 93 99 93 94 79 59 52 50 62 67 64 66 63
90 99 85 98 99 100 99 81 64 67 58 59 75 76 71 58 49 58 65 50 38 50 75 78 92 100 86 57 47 65 86 97 99 99 99 97 88 49 60 62 64 63 59 61 58
95 91 82 100 97 98 81 99 72 69 62 79 79 74 68 83 65 51 46 53 55 53 54 75 98 99 97 82 62 78 67 78 83 100 98 97 88 48 53 57 56 60 58 58 72
96 97 89 100 97 92 92 85 88 66 66 60 65 73 73 100 78 69 57 50 49 52 78 78 92 92 88 65 68 88 76 73 87 99 98 94 84 54 46 49 50 52 58 63 67
97 94 83 98 80 90 98 95 84 78 59 60 64 64 77 78 93 88 65 53 44 60 70 85 99 98 94 78 72 71 74 74 80 86 92 83 81 64 58 46 43 47 63 71 74
97 98 93 97 78 94 80 83 92 71 75 82 81 60 63 76 79 94 83 73 64 57 54 82 98 95 98 83 83 85 81 82 82 68 79 88 76 51 42 46 43 46 61 64 67
90 88 90 76 75 78 77 82 86 98 78 56 67 88 71 63 62 64 82 88 91 98 77 89 97 98 96 74 84 99 85 73 69 61 60 68 52 41 47 49 48 47 52 55 57

GFSSW_925_rhum_159.txt.gz
RH
61 64 66 66 64 64 63 63 64 66 68 68 66 62 52 45 35 31 36 32 29 30 31 30 26 20 16 15 17 20 21 26 24 24 20 24 36 37 46 67 68 68 70 75 84
75 66 60 59 63 64 63 63 65 67 70 74 71 66 56 48 40 52 32 37 35 32 32 29 28 23 18 16 16 17 22 22 20 20 16 22 34 42 61 71 72 76 77 80 72
83 82 78 68 60 56 57 59 66 71 77 81 79 74 62 49 50 33 27 40 36 32 31 27 26 24 20 18 17 22 18 20 18 18 14 20 31 36 55 70 63 70 79 73 63
96 92 91 89 81 69 62 61 64 76 87 90 85 82 68 56 41 26 34 33 37 32 29 29 30 26 22 19 17 19 17 18 16 16 17 23 29 40 50 47 51 61 68 65 59
99 99 98 98 96 92 83 73 76 86 96 99 100 94 77 78 59 29 36 44 40 40 40 37 37 23 21 18 17 18 16 16 15 14 17 27 31 36 51 66 60 64 63 59 51
99 100 100 97 97 97 95 93 91 94 97 97 96 94 86 90 49 45 47 40 46 50 46 43 39 23 22 19 18 18 18 17 16 15 26 26 35 35 58 64 65 63 59 52 47
99 99 98 100 100 100 98 92 88 85 84 87 86 91 94 83 51 42 51 55 52 62 53 50 39 35 24 26 20 18 21 17 16 14 18 28 36 33 50 62 63 58 53 50 47
98 98 96 98 98 99 100 98 93 91 94 100 100 100 94 67 59 66 61 69 67 61 64 56 44 36 32 22 23 24 22 25 17 15 17 22 20 30 52 58 58 54 51 51 51
89 90 90 94 94 90 85 74 73 78 88 97 100 98 90 69 73 59 60 73 62 61 69 58 49 46 24 32 38 30 34 27 21 16 20 24 18 25 49 54 56 53 50 51 52
84 78 81 85 88 88 86 76 70 85 94 100 99 99 84 65 65 61 58 65 60 55 55 59 42 35 34 42 49 42 33 26 26 17 19 25 22 35 49 52 53 50 48 49 50
80 82 84 95 98 95 86 76 86 94 99 86 87 84 72 69 65 59 58 55 57 52 61 44 57 60 52 41 38 30 29 27 22 18 20 19 18 17 43 50 53 50 50 48 49
80 78 78 84 97 100 100 99 78 76 89 68 67 69 70 71 77 58 56 58 60 67 61 50 66 54 47 47 40 40 45 45 33 27 28 26 25 19 36 45 48 49 48 47 49
86 78 82 79 82 88 99 83 84 79 95 71 67 67 61 60 71 66 57 55 64 62 66 65 53 48 56 58 53 50 52 49 44 34 28 26 28 23 30 34 40 44 43 44 48
79 90 88 88 90 76 90 73 91 83 86 64 77 65 60 56 67 51 51 58 66 68 59 65 52 52 57 60 57 68 48 48 48 45 54 24 33 23 27 38 41 43 46 47 46
77 89 88 86 96 96 84 88 92 84 73 46 70 53 57 64 58 60 49 57 74 66 56 61 54 58 57 51 50 56 42 43 42 44 43 37 33 25 22 33 39 41 45 46 45
79 86 88 90 96 84 88 87 85 88 86 48 63 78 81 69 66 64 65 54 59 74 68 67 48 47 46 46 45 41 42 38 36 41 55 41 35 29 24 24 32 34 39 44 45
86 87 88 88 90 87 87 82 97 97 43 46 64 79 81 82 79 70 83 82 82 97 94 72 70 54 45 55 53 47 52 92 78 61 59 33 36 29 22 21 22 30 34 40 45
75 84 89 89 80 90 91 99 98 56 55 43 42 76 86 76 79 76 88 88 78 76 73 82 82 66 49 51 54 65 62 81 80 58 47 36 38 27 30 34 36 32 29 37 46
66 67 80 84 81 97 99 98 84 62 60 68 45 47 46 70 66 75 82 83 74 74 80 80 76 51 47 42 43 62 77 53 84 80 78 46 35 28 37 35 41 38 40 43 47
68 77 84 65 77 89 100 96 76 68 62 64 66 50 51 40 68 72 60 63 67 69 67 59 76 64 53 44 44 54 51 80 94 96 88 55 58 48 38 34 42 49 47 49 48
74 88 66 67 73 98 98 97 80 61 58 66 79 81 67 63 49 49 54 48 57 58 68 57 68 82 78 67 59 61 73 93 94 92 65 60 68 56 52 46 43 46 52 54 55
91 97 83 95 99 100 98 80 68 67 57 63 60 72 85 70 62 51 50 47 46 46 64 77 75 100 94 76 76 67 80 92 98 99 94 73 69 46 53 55 51 45 51 53 55
97 92 88 100 95 89 84 88 98 72 58 77 93 65 56 96 85 71 58 55 60 56 58 73 90 98 94 86 86 93 84 90 97 100 99 97 90 48 47 48 49 48 50 55 57
96 90 91 98 89 85 74 80 88 85 94 70 68 65 94 99 96 97 96 72 59 60 74 69 95 98 94 86 85 94 87 87 95 99 98 94 84 57 47 45 45 48 50 52 61
94 90 79 94 90 92 93 94 72 76 68 72 93 70 64 67 66 100 91 75 70 62 70 80 98 98 96 96 100 98 88 75 100 99 100 82 74 55 54 46 45 45 52 59 64
98 94 91 87 83 88 73 70 80 80 96 94 92 67 73 79 65 60 62 96 100 86 93 79 83 92 95 73 85 100 89 89 80 81 83 77 74 54 53 48 47 47 53 56 60
93 87 85 75 74 68 73 70 63 90 96 93 96 95 79 64 66 64 58 59 60 70 83 100 96 98 75 71 83 99 89 82 70 62 61 74 54 53 54 49 48 48 51 52 52

GFSSW_925_rhum_162.txt.gz
RH
63 60 60 63 64 65 64 63 63 65 66 64 64 60 53 46 34 32 25 31 34 29 30 24 18 17 14 12 11 12 12 12 12 14 10 20 31 34 34 43 48 48 49 56 82
76 75 73 65 60 59 61 61 60 60 64 67 69 63 55 47 50 32 35 38 35 31 26 24 19 18 12 12 12 12 12 10 12 12 12 14 20 31 44 43 51 57 58 70 74
90 86 82 84 81 74 67 62 60 62 67 72 74 70 62 47 34 22 28 37 34 32 29 26 23 20 16 13 12 11 13 9 12 12 12 12 15 20 34 36 38 49 61 63 66
88 92 93 88 86 86 86 77 69 68 76 87 86 78 65 61 32 26 29 39 36 33 28 26 23 20 18 16 13 16 12 11 11 11 12 12 12 25 26 26 33 36 50 58 63
100 98 93 92 92 90 91 91 90 86 90 97 96 93 74 48 36 26 36 41 43 40 32 29 29 21 19 16 15 16 14 12 11 11 11 11 15 18 24 29 36 39 51 58 61
92 98 99 100 100 95 88 90 90 91 92 91 87 84 78 73 39 41 47 45 39 39 32 30 27 26 27 22 18 14 15 14 12 12 11 14 14 25 21 36 40 47 52 55 58
99 99 97 98 100 100 100 98 95 88 86 84 83 98 87 70 49 45 46 47 45 45 37 29 30 29 24 23 18 18 20 15 14 13 12 15 18 24 18 39 41 47 48 51 50
94 98 100 99 99 100 100 99 96 90 87 90 99 100 95 66 59 56 54 52 51 55 53 45 38 33 28 26 28 24 21 24 13 13 12 16 16 12 22 37 39 42 46 48 45
85 88 88 90 94 92 86 78 71 74 83 91 98 92 78 58 62 54 54 52 51 51 55 51 46 40 31 37 33 24 24 18 17 14 13 16 16 11 24 33 33 39 42 45 42
91 81 80 82 84 85 83 80 74 76 94 100 98 98 83 48 49 54 51 56 51 48 52 54 46 44 40 32 32 22 22 22 19 13 16 16 17 12 22 29 29 33 37 42 41
81 80 84 86 93 95 90 72 74 78 94 61 74 71 52 55 57 48 50 47 44 48 52 48 47 42 32 29 25 22 25 25 19 14 18 18 17 16 19 27 28 29 34 38 38
82 77 77 74 82 92 97 84 76 81 75 56 61 61 58 54 57 44 47 49 48 53 42 46 51 31 27 26 30 32 34 34 27 25 28 26 22 17 13 21 22 26 32 35 36
84 84 78 75 71 80 80 85 85 81 72 53 49 48 45 43 53 50 38 42 51 52 47 52 36 31 35 38 43 42 41 38 36 31 29 31 32 26 19 15 18 20 26 31 35
73 83 87 80 82 75 70 81 84 80 65 27 49 46 45 45 53 37 38 43 46 56 48 46 36 37 41 43 40 51 35 40 42 42 45 26 36 21 18 21 20 20 29 33 34
70 74 86 81 88 79 71 84 89 79 56 24 49 42 45 52 46 48 39 42 56 47 49 52 44 47 49 43 40 47 38 40 43 44 43 39 43 31 21 19 19 21 28 37 35
72 72 82 94 96 79 88 96 82 80 62 23 46 59 63 56 49 53 51 42 44 55 55 53 36 42 42 40 41 39 45 45 42 45 58 40 36 30 22 19 17 20 22 34 38
74 74 87 85 68 88 80 84 92 70 22 17 36 56 57 54 58 55 70 70 68 92 88 57 57 43 44 51 44 49 66 98 93 75 60 29 33 31 20 17 16 18 24 30 37
80 82 85 85 78 97 94 96 96 33 33 26 33 44 55 49 56 55 59 80 62 56 52 58 55 43 40 52 61 57 71 73 73 59 41 30 41 27 21 18 16 15 20 27 34
71 79 77 77 90 92 100 98 63 38 27 40 25 42 39 41 45 53 55 57 50 52 64 48 44 35 40 37 46 63 78 56 81 75 70 35 27 21 22 24 24 24 26 28 34
70 71 59 75 73 92 99 97 83 48 47 48 43 26 30 27 43 42 39 37 44 42 44 47 74 44 42 41 42 56 58 94 97 98 89 43 36 35 32 27 26 30 30 28 33
90 70 58 83 76 89 98 79 70 57 62 62 49 48 40 46 37 30 32 26 35 37 42 49 68 80 60 60 52 57 74 90 96 84 82 60 52 40 40 35 32 28 33 35 36
93 93 84 99 88 100 98 76 80 55 57 72 60 63 56 54 58 44 33 28 49 42 40 33 57 75 64 49 66 74 87 87 100 100 88 63 63 37 40 40 34 29 33 35 36
83 66 88 97 83 89 57 64 91 75 74 95 65 49 39 44 63 46 49 55 58 58 48 34 49 63 62 69 78 77 64 88 93 100 100 100 73 49 41 36 36 35 35 40 42
90 88 75 93 66 64 52 53 50 88 90 65 94 56 63 92 80 92 89 67 66 65 76 65 55 63 55 64 92 98 94 93 99 99 100 97 93 61 49 43 35 34 36 38 44
89 74 52 83 76 73 66 54 47 48 46 56 95 70 69 78 84 87 61 70 84 82 87 94 96 76 79 63 72 81 78 74 100 97 100 94 70 58 67 51 37 37 38 40 45
94 83 66 58 57 64 62 66 61 49 89 88 95 68 99 87 56 61 68 58 63 67 76 96 99 91 89 54 48 69 69 58 75 88 95 81 72 48 46 43 38 34 39 41 46
97 71 58 56 57 59 60 58 52 56 42 80 95 82 79 97 74 61 67 58 60 61 63 79 95 77 74 53 49 78 65 65 53 52 54 57 41 34 44 43 41 38 35 37 40

GFSSW_925_rhum_168.txt.gz
RH
78 72 70 69 66 62 57 54 51 51 48 44 45 44 39 37 32 35 26 32 32 29 24 22 20 15 12 12 9 8 13 13 10 8 6 7 10 8 8 9 21 33 49 51 64
88 87 87 83 76 72 72 70 65 60 56 51 49 50 50 47 50 33 29 31 33 29 26 22 20 16 17 14 11 10 13 12 8 6 6 7 7 8 10 19 22 52 54 58 63
97 96 94 92 93 90 84 82 80 78 74 72 72 69 60 55 37 26 25 26 26 26 28 24 21 18 19 16 14 11 12 9 8 7 6 7 8 7 8 15 20 32 62 60 61
93 92 98 100 96 97 97 95 92 91 89 87 89 88 81 75 29 27 25 24 24 25 26 21 18 19 20 20 14 14 10 9 9 8 7 8 7 8 8 9 9 14 50 57 61
82 84 90 95 98 100 99 98 98 95 95 95 92 90 86 56 44 28 27 23 26 25 21 20 22 20 21 16 14 14 10 9 9 8 8 7 8 8 8 7 6 9 47 54 57
76 76 78 87 94 96 94 97 99 100 98 94 93 94 90 89 45 36 28 25 28 28 26 21 22 20 22 22 22 18 16 13 11 10 9 10 9 8 9 7 7 10 45 49 53
81 81 83 84 85 89 93 95 98 99 98 97 93 100 94 78 50 42 42 40 36 35 34 32 28 24 21 24 18 18 20 17 15 12 11 9 11 10 8 7 8 9 21 43 46
84 86 88 89 91 90 89 90 91 86 79 77 79 91 96 70 58 53 49 42 38 36 36 35 34 32 31 24 24 26 25 27 17 14 13 11 16 10 8 8 9 10 16 24 39
83 80 80 83 84 84 84 84 82 78 76 75 86 79 75 43 54 50 48 42 37 33 35 34 33 38 37 39 36 29 34 26 19 13 14 13 14 10 8 9 9 11 17 21 33
74 74 78 76 74 74 74 75 76 75 73 77 71 82 63 46 35 33 36 36 33 32 35 39 41 44 40 40 45 32 26 22 22 15 14 14 13 11 10 9 10 10 16 19 31
80 85 79 75 67 63 65 69 61 64 69 60 57 58 33 32 36 33 32 34 34 38 49 38 52 56 40 33 32 29 29 28 22 17 15 15 14 12 10 10 11 11 15 16 26
81 86 78 72 66 69 77 54 45 65 74 49 58 47 44 42 46 34 32 41 42 53 40 44 49 39 32 31 32 31 33 32 25 20 19 19 19 16 14 12 11 10 14 16 21
84 86 84 73 69 69 63 50 45 52 63 38 29 36 38 33 42 38 30 35 45 48 41 47 39 31 34 36 37 34 35 32 28 22 20 22 25 23 19 17 16 15 12 13 15
83 82 85 78 80 55 46 44 46 55 61 22 14 19 18 21 32 24 27 33 37 44 40 42 33 32 32 33 32 48 32 28 28 34 46 33 50 31 24 21 19 18 16 13 14
76 78 77 76 75 54 54 51 57 67 72 12 13 13 20 23 24 24 22 30 43 41 40 49 39 36 35 32 28 38 32 32 40 54 59 54 61 42 28 26 21 18 18 16 15
68 70 79 86 83 63 51 68 69 84 74 24 16 26 29 28 26 26 36 25 30 40 38 38 29 30 29 26 27 33 38 52 60 81 97 65 57 53 38 29 23 19 18 17 15
68 69 76 65 58 52 56 63 90 94 25 23 20 24 28 28 30 27 33 39 46 54 52 40 38 30 29 37 35 37 49 86 92 90 85 46 46 43 28 22 21 21 18 20 18
68 67 76 68 61 55 67 97 98 43 38 16 15 17 22 26 29 31 33 39 36 38 40 46 53 33 31 36 41 42 50 70 78 73 55 34 41 30 22 19 17 17 21 23 21
77 79 72 68 66 63 91 98 91 47 26 26 42 38 32 21 22 24 35 49 34 38 50 46 45 28 20 25 32 44 61 45 68 61 70 48 33 22 21 21 18 17 22 22 26
81 85 71 63 66 71 99 97 75 43 35 47 82 41 42 28 24 21 20 24 37 36 67 63 75 33 26 35 36 45 37 68 80 96 92 56 45 38 43 28 23 21 24 26 25
93 99 77 65 67 97 98 94 59 40 38 82 86 62 44 45 46 44 43 30 62 55 48 65 87 67 46 48 59 60 78 75 94 94 72 63 58 38 45 42 41 28 22 29 24
98 100 66 69 98 100 97 65 48 40 38 69 70 56 50 48 51 48 54 84 55 58 72 69 94 84 78 63 45 55 73 68 98 99 100 98 75 70 69 62 38 36 26 28 35
100 82 64 88 98 98 62 52 48 52 39 97 90 94 86 71 84 52 52 83 66 71 80 69 71 85 60 68 58 68 62 80 99 100 100 98 80 75 72 65 62 65 33 30 30
100 100 87 93 93 99 63 52 49 36 42 41 93 65 56 54 50 91 76 61 72 59 70 56 63 81 96 96 66 85 67 66 96 100 81 94 74 56 68 70 69 72 64 38 33
100 95 80 98 94 92 80 88 58 51 58 81 61 52 50 71 58 65 70 68 59 72 57 59 63 69 69 57 44 44 46 68 98 90 98 58 56 41 34 48 56 48 39 37 35
100 98 65 94 57 76 71 94 64 50 65 75 83 68 74 88 90 93 88 69 82 71 61 68 76 76 78 44 40 51 51 49 52 83 77 64 58 34 34 32 45 48 41 35 35
91 87 91 77 64 76 83 69 56 48 48 49 50 61 55 55 85 72 48 45 54 65 62 96 89 79 68 43 48 71 50 43 62 38 43 60 43 27 32 36 39 38 40 36 34

GFSSW_925_rhum_171.txt.gz
RH
72 73 72 72 71 70 69 68 66 63 61 59 59 58 55 55 39 30 37 29 29 29 28 25 22 21 19 18 17 15 22 21 19 16 13 9 10 9 9 10 65 53 58 63 78
83 83 85 86 86 85 80 77 75 73 71 71 70 71 71 63 57 53 28 26 27 28 28 28 27 24 28 24 22 23 26 19 13 12 11 10 10 10 10 12 64 71 66 70 72
93 90 90 92 93 92 92 91 89 86 84 84 83 80 76 70 70 26 25 24 23 23 22 26 27 24 26 23 22 23 26 18 15 11 12 11 10 9 10 11 25 76 80 75 73
90 93 93 96 99 99 96 95 93 93 93 90 90 89 82 74 58 30 28 32 34 25 28 26 26 25 28 28 22 26 20 17 14 11 12 12 10 10 10 12 11 57 69 74 76
86 86 85 86 91 97 99 99 91 93 94 93 92 94 90 77 64 42 42 38 35 26 28 26 27 28 33 26 24 27 24 21 19 17 15 12 12 11 11 10 9 49 66 70 71
81 80 79 80 83 86 87 88 88 90 94 99 96 95 96 94 56 46 46 40 33 28 29 31 34 32 31 29 30 25 24 23 20 19 17 16 14 13 12 11 10 42 70 68 68
81 81 81 82 82 83 84 86 89 92 92 89 86 90 95 82 53 40 37 38 39 50 46 39 36 41 38 42 29 26 34 28 25 23 22 17 18 15 11 10 11 12 65 66 67
82 83 84 85 84 84 83 83 82 82 80 74 75 92 92 66 50 56 50 61 52 48 47 41 38 43 47 40 42 43 37 42 27 24 20 19 25 16 13 12 11 12 54 63 65
83 82 76 73 74 77 78 78 77 77 78 75 81 93 85 57 65 49 55 57 50 44 39 37 37 48 49 58 65 54 60 43 34 23 21 21 22 17 14 12 13 12 24 60 62
84 74 74 75 73 68 62 59 62 73 74 83 80 85 71 49 39 42 41 46 46 42 40 44 51 61 60 66 82 64 52 44 38 26 22 23 22 17 15 13 14 15 16 54 59
80 81 75 70 64 60 56 65 80 89 76 80 73 70 47 46 42 36 33 35 38 44 59 50 66 79 66 55 52 47 44 43 34 28 30 30 28 22 17 15 16 16 16 22 54
78 81 76 70 65 60 58 78 56 64 83 60 67 62 57 53 58 44 40 47 47 60 54 59 70 53 50 47 47 46 48 46 36 30 30 30 29 23 21 20 16 16 16 26 41
80 81 82 75 67 61 61 58 46 52 75 54 45 50 54 54 64 55 42 44 51 58 56 65 54 44 44 46 48 47 48 46 45 35 31 31 33 28 23 22 21 16 14 18 32
82 82 79 73 69 68 63 58 46 48 92 43 32 31 33 36 46 37 39 44 47 57 56 55 42 43 44 46 41 54 38 39 41 46 60 43 63 43 36 34 29 25 23 18 24
79 77 75 71 82 71 60 63 61 63 85 20 16 15 20 30 26 26 27 40 52 50 50 56 46 46 47 43 37 42 33 36 40 71 85 63 79 54 38 42 34 29 27 27 35
71 71 76 82 73 49 50 58 61 92 92 34 19 26 28 26 25 25 30 26 33 46 47 49 37 41 42 38 38 34 36 50 57 81 96 70 69 63 45 39 34 30 25 23 26
68 70 76 72 71 59 59 68 97 96 30 28 24 21 30 34 30 27 32 42 48 62 63 51 50 41 38 47 39 41 50 94 97 98 80 47 68 60 35 39 36 32 28 25 27
73 76 76 74 61 62 66 97 98 52 46 27 32 37 39 32 30 31 36 41 40 43 51 66 72 44 37 45 49 48 50 78 78 74 59 41 56 43 33 30 29 25 26 28 27
79 79 84 76 65 68 93 98 95 69 36 39 62 50 45 31 32 31 32 41 41 35 64 71 58 36 32 34 38 49 62 45 71 61 78 53 44 34 31 42 44 30 30 36 45
79 84 80 73 72 74 98 92 84 55 49 48 91 68 62 46 51 46 45 43 56 47 73 89 100 67 50 44 47 46 42 68 69 94 93 81 60 56 74 69 58 46 42 39 51
92 99 81 68 73 97 98 93 68 59 52 57 89 91 70 66 60 66 61 70 70 62 60 88 96 79 62 59 56 57 70 78 87 95 96 91 81 73 87 82 84 71 44 46 50
99 99 64 77 98 100 98 86 57 54 44 68 90 77 79 76 84 67 80 61 71 76 94 84 99 100 78 56 62 71 86 94 100 100 100 98 96 80 74 72 75 74 69 63 58
98 91 62 77 97 96 94 94 71 59 49 98 100 90 76 78 86 71 81 65 85 89 97 95 96 95 76 66 72 95 96 93 99 100 98 96 98 76 70 64 59 71 65 64 54
99 99 92 94 90 88 83 86 80 63 54 54 96 95 100 93 68 88 68 48 61 65 88 88 91 98 96 86 82 92 68 62 95 99 99 100 86 68 60 69 64 68 69 62 57
100 98 83 98 92 92 87 86 89 96 63 86 97 88 66 81 65 65 72 68 57 72 88 97 99 72 73 58 57 67 55 60 66 76 98 69 68 54 50 68 68 67 67 63 52
99 100 87 88 83 86 85 79 79 87 97 100 95 100 77 86 88 87 83 68 68 68 72 88 98 95 90 56 51 59 50 50 48 50 58 76 81 55 48 42 59 60 57 52 47
99 89 99 81 77 85 93 85 86 75 98 74 64 64 65 66 81 74 72 66 61 61 64 92 96 97 83 51 58 76 59 49 39 36 54 68 54 48 49 41 42 58 56 54 49

GFSSW_925_rhum_177.txt.gz
RH
55 55 58 60 61 63 64 65 67 67 66 68 71 72 68 60 48 40 52 23 26 26 25 24 26 26 24 24 23 23 35 40 31 24 22 16 17 13 10 14 57 64 69 67 89
64 65 67 68 73 76 79 80 81 82 82 83 83 83 75 64 57 63 24 24 28 35 38 28 28 30 30 27 26 30 41 35 26 19 22 20 20 15 12 13 27 74 79 85 98
77 81 84 83 83 87 92 92 89 86 86 87 90 91 81 66 70 48 25 28 34 42 46 38 30 29 29 26 25 28 38 31 26 24 24 22 22 14 14 16 13 22 94 90 92
96 100 98 98 98 99 99 97 93 84 82 87 90 97 75 69 58 29 27 35 45 42 47 33 30 29 30 31 28 35 30 29 29 24 26 28 22 22 16 16 14 24 89 86 86
100 100 99 94 96 90 83 76 74 81 82 84 98 98 82 82 67 35 34 41 44 43 47 36 37 36 40 40 46 48 38 33 30 31 29 27 28 27 21 17 15 50 90 92 85
99 97 92 87 82 78 74 73 73 76 80 88 93 94 93 94 48 42 47 46 52 51 42 44 40 42 51 54 44 38 50 47 41 37 34 34 30 25 24 20 16 82 92 94 88
94 90 84 78 76 74 71 70 72 74 79 84 82 87 95 77 40 44 52 55 54 54 57 51 48 49 52 58 48 47 64 54 49 44 37 29 33 30 21 21 22 44 85 90 92
88 85 82 79 75 71 70 69 69 76 81 83 86 96 96 55 52 55 54 51 48 53 60 57 50 55 56 52 58 67 67 76 40 34 29 28 36 27 22 23 22 21 55 84 88
88 83 78 73 69 65 59 57 62 66 71 77 87 98 88 56 65 52 57 64 56 59 64 57 60 66 58 73 84 77 86 80 63 40 38 34 39 26 23 24 24 23 24 77 82
84 78 72 64 56 53 50 50 51 58 72 87 91 84 76 46 48 46 52 59 61 58 58 64 67 80 83 83 78 81 92 84 70 42 34 42 40 33 31 29 29 28 24 45 70
78 72 64 58 56 53 47 63 74 79 88 73 76 66 55 50 39 43 43 46 58 59 70 67 84 94 79 68 61 65 75 78 56 43 47 51 50 43 37 38 36 30 29 27 47
74 68 64 60 58 57 52 66 65 58 81 68 70 71 56 54 66 40 39 45 66 80 68 74 85 63 65 65 72 73 82 81 65 55 57 60 57 44 40 37 36 31 30 28 40
75 71 65 65 64 58 57 66 68 68 83 64 67 71 63 60 69 58 51 49 55 69 75 80 61 52 63 69 76 76 83 78 75 60 57 61 63 50 37 35 33 31 28 26 25
74 72 71 73 62 72 70 60 60 59 48 35 51 48 49 59 68 53 44 46 61 48 68 76 60 58 55 70 68 85 59 66 72 78 88 56 75 47 37 35 33 34 35 33 33
74 73 78 77 79 80 58 57 61 42 53 26 31 33 45 57 38 40 45 49 59 62 67 58 62 69 70 63 54 70 57 59 64 70 67 60 72 52 38 36 32 39 40 37 38
79 80 82 83 72 58 58 55 53 64 52 35 33 44 43 42 37 32 55 47 48 57 54 58 46 51 55 52 54 50 56 56 59 68 87 59 61 54 40 34 36 36 39 42 42
78 79 76 73 75 60 56 65 82 80 37 39 42 43 41 38 34 31 47 67 59 79 85 62 55 42 39 53 48 54 67 89 87 82 77 44 50 50 33 30 31 38 44 46 44
81 78 92 75 71 60 57 85 98 56 61 41 49 48 42 37 37 46 38 44 51 53 56 62 64 42 46 54 44 60 61 82 82 73 54 40 58 44 33 30 35 49 54 56 61
88 100 95 86 73 63 88 98 83 64 48 58 49 62 62 55 54 60 61 84 82 85 85 90 71 55 56 56 49 61 68 49 73 66 75 53 48 40 37 56 65 68 65 71 76
97 97 97 82 74 72 98 81 77 58 50 56 72 68 80 69 61 67 62 84 85 77 84 96 100 80 71 58 59 64 53 80 79 95 90 62 53 47 71 86 79 79 77 76 78
86 96 90 85 81 97 97 89 64 45 46 62 59 65 69 83 68 70 64 88 89 88 79 99 99 90 75 70 87 82 78 84 90 96 88 72 64 94 91 83 88 84 74 78 80
87 97 82 84 99 100 98 75 55 56 52 59 67 62 67 60 60 62 59 53 72 82 86 97 96 97 75 49 62 84 100 100 97 95 97 99 99 98 90 76 75 86 80 76 78
96 95 90 82 97 98 83 67 65 66 66 70 75 73 74 85 92 76 80 84 69 74 89 82 94 95 66 79 83 94 97 100 100 99 96 96 94 66 71 60 64 72 76 77 73
100 98 100 100 90 80 81 80 84 78 83 71 96 89 99 98 93 95 92 64 66 62 58 76 90 86 81 70 76 81 68 82 100 98 97 90 78 59 62 66 53 52 64 65 65
100 97 85 97 97 92 81 86 79 81 72 82 80 86 86 97 84 91 79 73 64 66 76 90 97 86 79 70 62 82 76 71 72 70 94 66 66 57 53 64 63 58 54 49 60
99 98 96 88 76 98 86 89 85 75 79 86 89 84 91 94 81 83 89 79 68 78 89 91 80 87 86 48 57 75 69 63 48 47 52 62 72 49 43 41 60 60 61 61 55
99 99 88 85 93 89 82 78 74 72 73 67 76 94 99 93 99 87 68 61 52 73 73 93 97 98 81 43 58 83 48 35 39 39 44 56 44 64 49 41 47 56 62 64 55

GFSSW_925_rhum_180.txt.gz
RH
53 58 57 60 62 63 64 64 66 68 72 76 79 76 66 62 48 44 50 29 28 33 33 26 24 27 26 26 25 26 38 44 34 28 25 19 23 17 14 13 55 66 67 69 94
63 62 66 66 70 72 74 77 78 81 86 85 83 83 64 57 51 63 34 23 31 39 38 38 33 31 31 27 28 32 46 40 31 24 24 24 26 23 18 19 14 59 77 90 100
62 65 69 77 80 82 83 89 93 95 88 84 81 76 63 56 61 41 28 28 34 42 44 46 36 32 31 27 24 30 38 32 28 24 28 31 25 22 21 26 20 19 69 89 98
69 75 85 97 97 99 99 100 98 98 91 86 82 70 62 58 50 32 29 32 40 46 42 39 33 33 32 31 29 34 33 31 31 29 30 30 26 29 25 24 20 18 76 89 91
79 88 99 99 99 99 99 91 84 86 83 81 86 78 71 79 64 38 36 41 44 45 46 44 39 38 40 37 48 47 44 41 37 40 42 37 36 32 29 23 20 22 75 91 90
87 96 99 99 97 93 86 78 73 76 78 80 81 79 84 87 44 45 47 49 51 52 49 44 40 42 51 56 54 44 52 57 52 50 49 48 43 37 32 24 23 41 80 89 89
91 99 99 93 86 79 75 74 75 75 76 80 81 82 96 69 41 48 50 53 50 53 56 53 49 51 55 60 53 56 69 57 55 54 53 41 41 39 28 25 26 42 77 92 92
100 99 93 87 79 74 72 71 74 75 78 82 87 95 95 52 53 50 44 49 48 53 60 57 54 59 59 55 60 67 68 83 45 43 42 31 41 29 26 25 26 26 32 82 90
100 94 88 80 75 72 69 66 66 64 67 76 86 96 86 51 59 53 57 62 59 64 69 60 64 72 62 73 82 79 84 87 69 47 38 38 48 35 26 28 30 32 31 42 78
99 89 83 77 73 67 59 56 54 57 70 86 93 75 65 39 48 47 53 63 60 62 67 71 75 85 85 82 80 86 96 90 80 50 44 48 48 36 35 35 35 39 34 34 52
94 85 79 73 65 56 54 65 82 86 96 64 76 54 50 50 41 46 52 50 60 60 76 75 92 94 86 68 56 62 80 86 66 53 63 61 55 46 39 48 46 42 43 37 35
91 83 73 64 59 57 54 64 57 49 61 68 76 72 59 58 68 43 35 44 68 74 74 79 94 72 71 74 73 70 79 81 67 60 66 70 68 53 45 42 44 43 40 36 34
86 76 65 62 64 65 54 59 67 67 69 59 65 66 60 61 67 59 43 45 55 80 80 74 58 58 66 77 86 85 89 82 82 68 65 73 75 52 36 34 36 38 38 36 34
83 70 66 68 67 62 72 62 57 61 37 32 51 58 62 63 67 57 46 44 54 40 68 81 64 58 60 70 74 88 66 69 73 81 82 66 75 47 39 37 36 35 38 37 36
83 74 69 56 63 80 64 62 61 40 51 28 48 39 55 63 45 54 46 48 59 58 62 56 69 75 82 72 64 70 57 63 65 77 85 70 89 52 39 39 31 28 31 38 40
87 83 80 76 72 62 59 58 54 54 52 40 45 53 58 52 40 57 53 46 46 55 52 54 47 50 57 52 55 56 60 62 64 77 92 64 66 71 49 35 34 28 28 41 48
92 91 80 73 74 61 62 67 72 75 36 45 51 43 42 38 34 33 61 71 57 60 69 60 57 42 39 47 43 53 57 76 90 92 77 45 57 53 39 33 32 40 49 54 59
90 85 89 78 65 60 58 82 95 61 52 46 48 46 44 53 53 52 45 55 85 83 68 66 56 46 51 52 57 59 61 76 77 57 47 41 63 44 34 49 69 72 72 71 74
97 100 92 87 76 62 84 98 85 61 50 54 52 54 61 58 55 53 83 88 78 83 86 96 84 57 61 62 55 69 75 51 70 64 79 64 45 34 31 39 65 74 75 75 75
98 98 100 90 78 76 98 88 73 59 54 53 68 66 78 73 65 65 59 75 81 77 82 100 99 79 67 61 61 65 66 88 89 95 93 76 63 58 88 91 80 80 80 74 74
89 98 100 92 73 95 96 89 65 48 47 60 60 69 73 75 64 67 60 79 80 84 82 84 92 73 58 62 66 76 83 88 91 98 96 94 94 100 100 95 93 76 66 71 69
97 99 99 87 99 100 99 73 54 56 54 63 66 58 62 58 59 56 53 52 74 74 84 90 92 97 69 49 72 94 100 98 97 93 92 94 93 97 91 79 82 78 58 61 65
100 99 99 92 98 99 89 71 67 71 64 72 76 69 74 84 88 76 66 81 81 81 89 87 95 97 66 81 80 81 80 88 93 96 94 97 88 67 60 55 71 74 65 55 62
100 99 100 99 91 89 83 80 83 66 65 71 85 86 96 96 86 92 91 76 78 72 64 66 87 86 79 63 61 81 60 58 84 96 79 85 70 49 40 55 51 55 56 60 52
100 98 94 98 98 87 77 84 83 93 81 78 90 84 87 94 94 87 87 77 70 64 72 85 95 89 80 67 70 78 71 53 75 76 93 64 57 44 41 49 48 42 43 48 53
99 98 91 85 80 84 81 91 81 80 80 91 88 85 90 95 79 82 81 86 84 75 88 89 89 88 90 55 58 57 49 59 64 56 59 55 50 42 67 62 62 56 47 55 59
98 97 86 85 96 88 92 86 78 71 71 75 80 88 98 90 88 85 90 93 84 80 83 95 95 96 81 44 60 79 53 46 42 42 40 51 49 84 84 79 81 74 69 77 78

GFSSW_925_rhum_183.txt.gz
RH
42 42 44 49 55 60 65 67 69 74 77 73 70 65 59 54 43 44 47 32 28 35 33 26 23 26 26 26 23 24 30 32 28 26 20 18 20 18 16 16 41 52 55 60 90
44 47 52 59 61 63 70 76 82 84 89 80 72 64 57 51 47 61 40 33 34 39 38 41 33 30 26 26 27 25 33 27 24 22 21 20 23 23 21 18 19 18 64 84 97
44 49 61 65 69 74 74 78 90 98 99 78 69 62 54 47 51 37 32 32 35 40 42 42 36 29 27 25 24 29 28 27 25 22 21 25 25 20 19 20 18 19 26 74 86
55 64 66 69 79 84 84 92 100 97 93 71 66 60 54 48 45 37 36 34 36 41 42 40 32 31 31 26 25 26 26 26 23 25 29 29 26 28 28 27 21 20 21 62 72
67 66 69 79 99 99 100 100 98 89 80 76 74 64 58 63 50 42 41 39 40 43 44 43 38 35 36 32 38 39 32 32 32 38 40 39 40 37 33 25 22 22 24 43 57
68 69 74 86 99 100 99 98 88 81 77 75 73 70 72 63 40 42 42 48 48 49 51 43 40 40 44 51 49 45 49 49 46 43 43 47 40 38 34 30 28 26 23 29 43
67 72 85 91 98 100 97 89 82 77 76 77 76 76 84 52 41 44 50 49 47 48 48 53 51 47 52 54 51 52 59 49 42 40 45 42 42 44 31 28 28 25 24 34 50
68 78 90 91 99 97 89 82 78 77 78 78 82 83 73 45 49 41 38 45 44 51 59 55 55 55 55 51 52 54 53 54 42 42 38 34 33 25 22 26 23 22 23 32 44
74 83 91 93 97 88 82 80 76 71 70 78 81 85 64 46 52 51 58 59 66 72 67 62 57 56 56 61 64 68 57 67 54 41 42 38 34 30 24 26 28 26 25 25 28
81 88 95 99 90 83 80 72 60 60 76 80 94 71 54 34 44 56 55 61 59 69 72 69 68 73 70 59 48 53 73 64 66 48 45 45 43 33 30 32 35 32 30 31 30
83 94 100 95 84 80 70 56 69 80 97 56 62 43 42 49 46 49 62 63 60 61 71 74 80 80 70 60 43 44 55 61 57 48 51 49 49 46 39 37 37 36 35 34 33
83 99 100 90 81 73 58 63 49 43 60 76 71 70 63 57 45 41 40 46 65 69 69 76 82 63 61 64 63 61 66 66 56 51 57 53 53 43 39 39 38 34 32 31 31
91 99 99 88 80 69 58 45 44 42 36 42 63 62 52 56 54 49 35 40 53 72 71 61 45 58 67 73 81 77 81 71 70 56 57 60 52 29 21 24 24 28 29 30 31
100 100 98 87 83 69 59 44 50 50 31 28 53 58 61 55 42 52 41 33 47 34 65 63 55 52 50 59 62 63 60 66 70 75 63 47 56 41 30 29 26 24 27 27 25
100 100 99 81 65 62 48 50 57 36 94 39 45 47 59 41 42 57 48 44 44 47 48 35 61 72 72 62 56 60 56 60 62 70 70 48 75 38 30 27 21 29 28 40 42
100 100 96 85 63 56 56 60 41 81 93 32 49 60 67 61 45 54 52 42 44 52 51 44 45 44 46 54 58 52 54 54 52 59 70 48 53 42 31 27 28 37 58 58 55
100 100 98 77 75 65 62 56 86 96 42 47 52 56 43 44 38 54 64 70 60 62 63 54 50 40 44 50 43 46 53 71 63 79 55 28 38 39 27 26 56 60 56 55 53
100 100 99 87 71 74 56 75 96 83 42 43 43 44 47 47 51 48 49 75 70 68 58 58 52 57 56 58 60 58 54 64 63 47 43 34 45 28 44 48 45 48 51 51 50
100 100 99 97 89 74 76 97 93 75 44 49 49 50 62 54 49 56 82 77 74 76 69 89 74 57 46 49 58 69 67 61 89 73 88 57 40 33 54 58 48 43 49 52 50
92 91 98 100 92 81 95 97 95 57 51 50 71 67 70 60 57 50 72 72 80 81 74 92 84 69 53 47 42 49 52 78 80 95 92 78 62 67 61 72 54 50 46 49 52
91 99 99 88 94 98 97 98 92 48 53 70 92 93 77 71 57 58 71 77 72 77 68 71 70 53 43 47 45 48 59 77 78 89 89 88 66 73 86 72 65 53 51 51 48
99 99 99 98 99 100 98 89 68 72 63 72 70 70 74 58 58 52 57 55 68 68 73 75 84 92 56 53 58 57 90 86 82 75 64 78 83 74 76 66 62 49 47 50 53
100 100 100 88 98 98 99 94 78 71 69 79 81 70 69 68 82 64 63 76 74 69 81 77 86 77 46 77 74 83 90 85 83 83 79 79 57 34 35 47 39 44 43 52 52
99 99 100 99 94 88 90 97 97 72 78 71 90 78 84 86 77 90 83 82 78 72 63 64 75 67 62 48 46 56 49 54 75 77 62 63 63 43 38 39 33 38 46 45 42
100 100 94 98 98 80 80 85 96 95 78 72 91 75 78 96 88 90 73 78 72 65 68 77 86 79 67 59 56 60 65 53 49 57 71 54 47 43 41 39 40 57 57 60 61
99 98 88 89 74 74 74 85 76 88 88 97 88 91 83 87 73 84 82 79 73 72 84 98 89 80 81 58 51 48 39 38 38 36 40 48 53 37 40 58 59 59 59 61 69
99 86 89 89 85 83 89 78 74 71 73 72 80 85 94 85 78 71 73 80 69 75 84 92 94 86 75 39 41 48 31 30 30 32 36 50 41 62 63 59 61 66 67 69 72

GFSSW_925_rhum_189.txt.gz
RH
59 59 59 56 52 48 46 49 50 54 55 50 44 48 54 49 43 39 31 29 29 27 24 20 16 15 14 13 12 11 14 13 11 10 10 8 10 9 8 10 10 10 10 11 22
57 59 58 55 51 46 47 49 54 58 60 53 50 59 54 48 49 37 34 34 29 27 27 19 17 17 16 14 13 14 14 12 9 10 11 11 11 11 12 12 12 11 10 10 13
48 53 57 56 51 45 45 54 62 66 69 57 59 60 53 50 41 24 32 33 35 34 27 24 21 17 18 14 14 16 18 13 12 12 12 13 13 12 14 16 14 14 13 12 11
44 44 52 53 52 48 50 58 67 75 66 59 68 59 52 56 38 32 26 30 32 37 28 22 19 21 21 20 15 19 15 14 14 13 14 16 16 18 18 18 15 14 14 14 14
43 40 41 50 50 48 57 66 74 85 74 83 68 58 57 42 34 38 29 32 37 32 27 22 22 23 25 20 18 20 18 16 16 18 19 19 21 20 19 14 13 12 13 15 15
47 43 41 46 47 50 62 76 85 90 96 81 67 59 60 55 34 38 39 37 34 29 27 25 25 22 25 24 24 20 21 22 21 20 18 20 18 16 16 12 13 13 13 15 15
69 45 45 43 47 52 69 87 92 97 98 75 65 64 53 45 36 40 42 34 30 31 26 27 28 27 23 26 22 24 31 23 19 17 17 16 19 16 10 11 12 13 13 14 15
66 63 47 46 48 58 76 92 94 97 86 73 66 64 57 37 37 36 36 37 36 34 32 29 29 31 29 26 26 29 27 30 17 18 16 16 20 11 11 13 14 14 12 12 12
64 69 56 49 52 70 88 93 95 96 79 72 70 60 54 41 39 36 34 30 28 32 31 29 29 28 24 32 30 25 30 23 18 13 13 16 18 13 12 13 12 13 14 14 13
73 65 69 55 57 78 98 99 98 86 79 73 59 63 47 32 27 33 32 29 35 35 35 34 30 28 28 29 33 25 22 18 13 10 11 13 15 13 12 12 14 14 14 14 14
100 74 67 66 72 88 100 96 83 79 70 59 48 48 26 28 30 34 39 37 37 38 38 38 37 38 27 27 24 21 20 17 12 11 16 19 19 16 13 12 12 12 14 15 14
100 99 73 71 81 94 95 70 57 40 63 57 47 40 29 26 30 25 33 38 41 45 29 36 43 24 19 20 21 23 22 19 16 16 19 20 18 15 13 13 14 14 13 16 22
98 100 92 81 88 99 91 68 47 47 53 42 52 46 35 32 28 27 30 31 30 33 25 29 29 24 23 22 28 27 24 24 23 21 20 21 19 15 13 12 12 13 25 27 28
100 100 100 100 99 98 93 71 59 44 96 73 45 41 40 35 38 23 28 25 27 31 30 28 22 25 28 28 25 35 22 22 26 25 29 18 27 16 12 12 19 26 27 26 25
94 100 100 92 83 96 90 74 61 64 98 70 53 30 30 40 29 29 22 29 31 24 22 28 24 27 28 25 23 29 21 24 26 26 29 25 26 18 11 12 22 26 24 22 19
94 100 100 99 81 87 82 78 63 99 97 85 42 42 38 38 31 24 24 22 20 25 20 21 15 20 22 20 20 19 26 32 30 30 42 26 24 19 14 18 24 25 21 17 17
92 100 100 98 90 90 81 82 99 98 86 76 47 40 42 41 32 39 36 34 32 36 33 22 22 22 22 26 26 29 34 44 44 42 40 19 20 18 13 22 25 23 19 16 16
98 94 100 97 93 89 81 96 98 86 84 44 37 39 45 31 28 40 37 36 28 25 27 33 36 23 25 24 30 34 32 38 41 35 27 17 23 17 12 18 20 20 18 15 16
100 100 100 99 100 90 93 98 94 80 56 47 35 47 44 30 31 41 40 36 29 28 36 34 37 27 32 25 26 32 38 27 40 36 44 30 22 16 14 18 23 22 21 16 16
98 97 95 100 100 93 96 95 95 60 58 42 45 40 45 33 34 40 40 31 34 32 36 35 69 35 33 29 30 31 27 50 46 77 63 34 27 25 25 27 23 20 17 12 11
98 98 96 100 99 96 97 99 100 82 68 51 43 42 35 32 33 38 39 34 40 45 40 41 50 55 36 36 32 36 35 35 36 49 73 59 44 23 29 25 22 16 12 12 11
96 100 100 99 99 99 98 99 97 92 85 87 72 54 37 32 38 35 36 44 37 36 40 37 40 67 47 24 24 26 31 46 92 85 76 75 67 29 23 19 18 15 13 10 10
99 100 99 88 97 99 100 100 100 100 100 99 99 76 45 42 69 69 71 48 39 36 45 40 56 60 58 45 34 35 36 44 81 93 85 80 61 17 18 20 18 15 11 10 14
99 99 100 99 97 94 99 100 100 96 99 95 98 88 96 99 86 100 93 70 48 43 57 36 49 54 67 48 47 56 50 50 81 78 64 65 52 30 22 18 14 12 13 16 19
100 99 87 97 99 96 85 99 98 100 99 90 99 84 78 98 100 100 85 87 60 66 46 40 53 46 38 31 28 28 30 29 44 55 65 43 35 26 19 14 12 14 18 20 22
100 99 83 78 92 95 97 99 91 100 100 100 98 97 93 99 76 98 92 74 75 59 50 48 64 48 72 39 34 35 28 26 26 26 29 25 25 14 12 13 18 22 22 22 22
95 85 77 84 87 93 91 97 98 93 97 81 94 97 100 91 67 60 56 53 47 54 55 67 69 74 50 28 30 45 34 30 28 23 23 26 17 12 16 18 24 22 21 24 33

GFSSW_925_rhum_195.txt.gz
RH
48 46 55 65 67 65 62 57 51 46 43 40 40 44 42 43 36 36 46 27 33 31 28 22 21 20 16 16 16 14 23 28 23 18 15 14 16 14 12 14 13 13 12 12 42
66 48 48 57 66 66 64 60 54 47 44 43 44 49 45 49 48 52 12 22 27 29 29 25 27 21 21 20 19 20 27 23 18 16 18 17 18 16 16 16 16 18 21 14 35
72 68 48 47 60 68 67 63 57 50 46 46 49 51 51 53 59 34 29 32 29 30 28 26 29 23 26 23 24 22 23 20 18 17 18 18 19 16 20 21 20 22 21 20 15
92 73 68 47 46 60 68 64 58 51 49 50 53 52 56 55 42 28 27 30 30 27 32 27 25 27 27 29 23 26 22 20 18 16 18 20 18 21 20 23 20 20 19 19 18
98 89 74 67 46 50 63 66 60 52 51 56 59 57 57 64 53 23 26 24 25 25 28 28 30 28 33 28 28 30 26 24 22 21 21 22 24 24 23 20 19 18 17 18 18
100 96 86 75 59 45 54 64 61 53 52 62 66 69 67 75 26 29 30 28 28 29 30 29 30 28 32 31 33 30 29 27 25 26 24 25 26 24 21 18 19 16 16 18 17
99 100 95 87 76 50 49 63 61 55 61 72 76 77 70 59 26 35 36 34 33 32 33 28 27 31 33 37 29 30 36 33 30 28 28 24 29 25 20 17 16 16 14 17 16
96 94 100 99 80 68 48 60 62 61 76 84 87 78 84 45 36 24 29 35 35 32 31 29 28 31 34 34 36 37 37 46 31 27 23 26 33 21 17 14 14 14 15 14 15
98 96 92 100 95 76 54 60 65 81 91 90 81 78 78 39 49 30 32 36 36 34 32 30 30 37 37 43 48 42 48 39 32 23 22 24 28 21 16 15 16 16 17 15 26
97 99 96 100 100 84 65 71 92 99 94 85 76 77 62 50 34 39 33 40 36 35 37 35 40 47 50 52 62 47 43 39 35 23 20 20 18 15 13 15 17 19 17 20 36
100 92 96 93 100 97 87 99 98 98 86 81 73 63 29 42 29 33 36 37 36 40 49 44 56 62 50 46 40 37 36 36 29 23 22 24 19 17 17 18 20 20 24 36 35
96 100 97 95 100 100 91 82 64 55 86 71 62 60 40 34 44 32 30 42 46 57 42 51 60 45 37 36 38 38 39 36 30 24 24 23 28 23 20 21 20 37 41 38 36
93 98 99 93 99 100 93 71 56 49 77 67 68 60 53 44 52 37 31 35 44 49 48 60 47 40 38 36 36 34 35 34 35 26 26 27 30 26 20 30 31 32 33 33 33
89 92 100 94 100 98 95 74 52 44 94 60 79 62 53 42 49 37 29 34 43 46 50 52 39 39 40 40 34 39 27 27 28 32 45 25 51 23 22 36 33 31 29 29 31
86 99 100 100 89 98 86 79 57 62 97 48 47 43 46 53 36 39 28 38 49 46 48 53 41 40 41 37 34 36 28 30 32 39 39 34 41 31 22 40 37 33 27 26 25
86 91 97 100 97 88 93 84 86 100 96 55 37 58 60 53 39 37 35 33 36 43 39 43 30 31 33 27 27 25 31 31 33 39 50 37 38 39 25 30 33 25 25 25 25
90 85 98 100 92 98 89 98 99 98 73 53 54 51 59 59 44 46 46 48 54 62 57 42 38 28 28 38 36 28 35 65 59 64 56 31 39 35 31 30 26 27 27 27 27
92 84 92 100 99 100 94 98 98 92 82 39 49 48 64 58 52 47 52 54 46 43 54 60 63 40 29 34 40 29 34 63 72 74 56 33 42 32 28 26 28 30 28 22 20
93 95 98 93 89 100 97 99 95 83 58 48 50 61 58 52 60 60 59 54 45 41 55 60 57 34 31 26 30 32 40 30 49 47 69 46 34 29 26 27 25 24 24 23 20
99 95 90 80 81 98 97 96 99 67 50 45 68 60 68 59 58 68 64 49 47 40 39 43 60 37 32 32 26 28 30 49 68 94 79 57 42 47 36 31 27 26 24 23 20
99 99 82 71 88 97 100 96 96 69 53 51 50 62 55 60 54 70 60 47 44 40 38 40 68 60 34 40 36 35 38 46 53 76 82 85 75 46 40 34 30 24 21 20 20
96 94 73 72 99 100 100 100 82 75 63 62 64 50 53 53 58 60 62 48 38 35 50 42 65 82 53 59 46 32 43 68 75 78 90 89 85 32 38 32 26 24 22 17 17
95 96 71 86 98 99 100 100 93 79 68 91 87 71 49 55 67 53 50 53 51 41 46 50 90 97 93 70 57 49 53 72 88 94 84 74 79 41 34 29 24 24 22 21 26
99 98 95 92 96 97 100 100 100 74 68 70 94 81 69 94 89 86 54 66 57 48 63 49 88 69 68 63 55 56 52 67 79 90 89 65 65 48 39 31 27 25 20 25 23
100 99 83 97 97 97 96 98 99 99 93 62 81 82 75 95 100 97 66 63 62 60 56 67 84 94 86 70 52 47 44 55 70 68 75 55 51 41 31 30 27 22 24 23 21
100 100 85 68 84 96 95 98 96 98 98 90 86 82 74 87 79 98 82 76 76 64 81 82 98 97 99 100 100 96 55 60 65 58 58 55 48 29 29 29 26 23 24 22 24
96 91 86 74 93 96 93 97 94 86 94 72 77 84 93 86 83 80 79 77 71 77 96 93 97 97 97 99 97 96 88 65 63 50 48 61 46 30 26 20 21 24 21 31 33

GFSSW_925_rhum_198.txt.gz
RH
84 62 51 32 46 62 64 63 60 57 52 46 43 41 44 44 36 36 47 17 22 23 26 28 23 22 23 21 17 17 26 30 24 20 18 15 17 14 13 15 14 16 15 20 45
100 88 65 57 32 50 65 64 63 59 54 48 44 44 48 49 46 54 18 16 14 31 29 28 28 27 26 21 19 24 31 25 20 18 19 18 18 18 18 19 17 19 20 50 56
100 100 90 67 57 36 52 67 65 62 56 50 46 48 50 53 60 37 33 28 27 30 31 29 28 33 30 25 27 26 29 22 20 19 20 21 21 18 20 22 21 22 21 20 61
99 99 100 89 68 54 38 59 68 63 58 52 50 50 56 55 39 30 27 33 32 32 31 32 33 31 29 30 25 28 26 22 21 19 23 23 22 25 21 23 21 22 21 20 21
97 100 99 100 89 69 49 43 65 67 60 54 57 59 60 73 55 24 25 27 28 32 29 29 32 30 33 31 32 35 31 29 29 28 27 25 27 26 25 23 21 21 21 23 22
97 96 100 100 100 83 68 47 56 68 63 57 65 77 69 83 33 24 25 28 27 29 30 31 33 30 36 36 36 32 32 33 30 30 30 30 28 27 25 23 23 22 22 21 20
94 91 98 100 100 97 77 61 55 68 65 63 77 87 80 63 33 34 38 35 32 31 34 32 31 35 36 38 35 34 38 36 33 30 32 27 33 30 25 23 23 19 20 21 19
90 93 93 97 100 100 90 75 60 72 67 74 90 88 93 55 32 32 31 33 38 38 35 32 31 32 35 35 37 38 37 48 34 30 29 28 38 27 24 20 19 17 21 40 43
80 99 94 91 98 99 100 81 62 76 75 96 94 85 88 49 59 34 32 31 32 36 37 34 31 39 38 46 53 44 54 44 36 26 29 31 36 27 23 21 17 18 24 45 46
81 85 100 99 94 99 100 93 82 88 95 99 86 86 73 62 44 42 34 38 38 40 43 43 43 52 56 56 65 58 54 44 40 28 28 27 26 21 16 18 19 19 37 46 44
87 83 89 98 100 92 100 100 99 100 96 81 74 65 45 42 39 36 40 40 42 49 63 50 60 68 56 48 42 41 42 44 38 30 28 31 29 24 20 21 22 24 44 46 44
78 89 92 100 98 99 100 94 68 58 93 72 67 65 41 35 49 38 39 47 54 66 52 58 66 50 44 43 47 48 52 52 40 32 31 32 30 28 25 25 25 41 42 42 41
82 81 77 96 100 100 98 91 70 58 72 72 69 66 62 54 61 47 39 48 48 63 58 62 53 44 47 47 49 50 52 48 43 33 28 30 32 28 30 36 39 41 39 39 40
81 86 86 99 100 99 97 80 83 66 89 66 88 68 54 54 58 40 35 45 50 61 57 58 45 48 51 52 46 54 37 36 35 35 45 29 46 34 38 39 36 36 37 39 40
84 85 80 97 99 97 82 92 98 95 97 57 66 52 47 57 37 50 38 37 50 54 54 60 55 53 55 51 42 45 32 34 33 38 41 39 46 38 26 44 37 35 33 31 29
84 83 86 83 99 93 78 86 99 100 96 74 53 77 68 60 43 36 43 39 38 47 45 50 42 48 47 40 38 36 33 35 37 45 61 45 43 40 32 32 36 31 29 29 28
87 80 96 89 93 95 94 97 99 97 86 74 63 69 57 68 55 40 45 57 60 73 71 54 51 43 31 41 37 31 41 76 83 68 72 42 40 36 32 31 30 29 32 31 25
88 78 89 85 70 97 99 98 98 98 93 48 49 65 65 52 54 47 46 60 51 50 57 72 74 50 40 36 40 42 36 72 88 81 61 35 48 40 31 27 29 32 29 22 20
86 92 99 82 68 99 99 98 93 93 66 58 53 74 65 55 53 48 47 51 50 49 50 63 59 37 35 32 32 44 47 36 54 71 92 54 40 31 27 27 25 26 25 22 19
96 89 83 79 84 99 100 96 100 78 54 51 68 63 71 60 54 52 54 43 45 46 37 52 65 41 38 33 32 35 33 54 94 98 96 70 48 55 37 33 31 29 28 22 20
97 98 70 63 89 99 98 98 100 80 60 55 67 62 59 65 56 51 46 46 42 45 42 48 61 57 44 47 45 44 47 51 63 85 84 87 73 56 39 36 33 27 24 22 22
98 98 67 85 99 100 97 100 88 82 66 62 53 66 68 59 64 63 50 41 43 42 56 47 66 70 52 55 53 39 44 52 73 85 79 84 78 36 38 35 29 24 22 22 29
98 96 71 75 97 96 99 100 98 82 71 79 78 59 55 66 72 61 63 52 54 48 52 49 78 81 88 67 56 50 46 45 79 84 84 74 79 41 33 32 27 26 24 29 27
100 98 96 92 91 88 84 89 100 86 67 62 72 76 59 86 83 74 61 66 55 55 52 46 74 74 71 60 58 58 52 44 53 67 74 66 57 45 42 31 28 27 27 27 24
100 98 83 96 93 89 92 92 98 100 91 62 79 77 62 94 99 89 64 63 59 62 60 55 78 82 81 73 56 45 48 52 54 46 63 52 51 38 42 32 27 29 27 26 25
99 98 95 71 75 85 88 96 96 98 97 90 86 78 70 72 79 99 82 74 66 63 73 78 88 87 94 97 87 64 47 58 52 50 48 53 58 33 32 39 31 26 26 30 34
98 94 90 80 79 88 86 89 91 87 93 78 79 80 81 73 68 82 81 82 72 73 87 82 95 95 97 100 97 98 73 56 53 54 55 65 51 39 40 42 33 29 33 38 39

GFSSW_925_rhum_201.txt.gz
RH
100 98 98 84 64 41 47 60 63 60 61 57 52 47 44 44 40 38 51 24 19 21 18 29 28 25 25 25 19 22 29 32 25 23 18 15 18 16 15 16 14 16 20 20 34
100 100 99 98 86 68 43 53 61 63 60 59 54 50 46 51 50 53 21 20 21 17 33 31 32 29 36 25 22 25 35 28 22 19 19 18 19 19 18 19 18 19 23 49 62
74 99 100 100 99 86 69 44 57 63 65 61 57 52 50 53 62 37 30 33 32 22 33 31 30 33 35 29 26 28 33 25 22 22 22 22 25 21 22 25 21 22 22 60 71
76 74 98 100 99 99 83 67 48 62 66 65 59 55 56 57 47 32 28 32 32 36 35 33 36 38 35 33 28 31 28 24 24 21 30 30 23 27 26 24 20 22 22 25 68
93 88 96 99 100 100 99 77 60 56 68 68 63 58 68 78 59 25 30 29 28 36 37 37 37 33 35 32 32 36 33 31 29 33 32 29 31 30 28 24 24 25 25 26 29
88 96 91 96 97 100 99 99 73 55 68 74 66 73 76 92 38 27 26 28 29 34 31 32 35 33 38 38 38 34 35 38 34 34 32 33 33 30 28 24 26 24 24 24 24
76 78 90 88 92 97 99 100 92 64 67 78 74 86 87 66 38 40 40 38 35 34 33 32 33 36 37 40 36 36 41 39 36 34 32 28 36 36 28 26 27 25 24 32 42
76 71 75 93 96 97 99 99 100 81 68 80 85 99 86 57 40 35 34 38 37 38 38 36 33 34 38 36 40 39 40 51 36 32 33 30 45 29 26 27 26 26 46 49 49
79 69 67 80 99 93 98 99 100 90 81 86 98 89 84 55 61 36 36 34 30 33 35 38 34 41 39 51 56 48 61 51 39 29 30 35 38 30 24 26 27 44 50 53 54
80 82 78 78 86 100 94 100 100 100 94 99 89 88 80 66 56 47 41 42 35 38 41 46 48 56 61 60 67 60 59 53 43 28 33 33 35 28 23 19 25 44 54 53 54
76 77 81 88 85 99 100 100 100 100 97 79 73 62 43 46 45 46 45 43 41 48 65 57 66 72 60 50 46 46 49 47 39 32 34 37 38 31 26 22 24 43 54 51 51
76 72 74 75 78 93 100 97 85 81 95 81 66 68 44 44 52 41 42 49 52 55 53 63 71 52 49 48 52 51 56 56 45 37 38 41 39 33 28 26 26 38 54 50 49
86 75 66 76 76 86 100 96 86 82 95 76 77 72 66 48 58 54 42 48 46 53 56 63 50 46 52 53 58 57 58 53 49 39 36 35 41 34 34 36 40 40 45 46 51
85 83 69 74 87 92 97 89 95 92 100 90 93 73 65 64 66 40 40 44 54 52 47 58 42 52 56 58 52 64 47 47 48 49 59 35 58 37 34 40 45 50 49 48 45
84 85 73 77 95 98 76 86 100 97 97 73 74 57 54 67 44 56 36 50 61 62 61 56 60 58 62 55 48 52 42 47 49 48 45 43 50 42 40 46 46 47 46 48 45
84 80 80 83 83 77 83 83 99 100 96 84 69 80 75 64 44 48 46 42 43 56 52 41 46 48 43 47 46 43 41 44 43 49 66 49 47 39 37 42 43 39 41 37 33
88 87 92 92 88 83 95 98 99 96 98 88 85 77 68 73 61 42 54 62 63 76 81 62 53 48 43 47 49 49 50 73 71 77 70 44 49 40 36 33 35 36 34 34 31
88 84 90 94 81 78 94 99 96 80 98 64 57 77 75 58 62 46 45 58 53 48 53 73 82 55 47 49 54 52 46 74 83 87 70 49 64 50 35 34 31 29 34 30 26
84 91 98 94 75 92 99 97 98 88 70 60 53 83 77 54 57 52 43 46 52 45 49 61 55 43 40 38 39 52 55 40 59 80 94 68 44 32 33 37 34 34 25 24 24
96 82 79 82 80 96 99 94 99 98 62 49 64 80 78 64 62 58 49 38 41 44 36 53 70 42 45 40 39 40 37 56 86 93 92 84 68 56 39 36 29 28 27 26 26
99 99 70 58 89 90 97 95 100 72 74 67 66 82 67 67 58 62 48 39 35 44 42 50 60 58 52 53 56 50 48 53 60 85 84 86 74 57 37 32 30 31 30 30 31
93 97 64 87 97 93 91 92 74 76 77 86 64 65 63 60 61 56 52 43 37 36 58 46 71 77 56 45 42 45 49 50 68 90 86 87 62 47 33 37 36 30 28 29 33
98 98 81 80 98 94 97 80 86 85 82 98 88 53 66 62 70 58 51 41 53 41 54 50 75 85 78 63 60 58 50 49 72 85 73 79 68 41 36 36 32 33 30 33 32
100 98 100 99 95 92 89 91 86 75 71 69 98 73 83 77 74 77 70 64 53 45 49 47 58 55 65 52 66 64 58 50 59 71 71 70 59 42 36 32 31 32 32 34 31
100 98 84 97 92 93 90 83 83 89 88 80 81 97 72 97 87 95 83 65 59 61 61 54 72 61 55 64 55 48 50 53 57 54 67 51 54 35 37 30 30 31 32 30 30
100 99 100 90 78 87 84 84 94 72 77 79 98 84 89 69 78 95 80 75 68 68 77 88 94 70 75 85 78 69 56 47 50 48 48 49 54 31 35 32 33 32 30 28 33
99 97 100 89 87 95 85 78 70 78 71 52 70 94 96 76 60 71 66 86 75 70 90 95 97 99 95 97 98 98 80 53 47 44 44 56 50 42 43 45 46 33 27 32 39